星链-36749(STARLINK-36749)

导读 | 豆包AI

STARLINK-36749是美国于2026年2月11日发射的星链系列卫星,隶属于SpaceX公司打造的星链卫星互联网星座项目。该卫星继承星链低轨设计,服务全球高速低延迟互联网覆盖,尤其面向偏远地区、移动网络场景提供连接,延续星链星座组网部署节奏,进一步完善全球卫星互联网服务布局。

基本信息
目录编号:
67734
目录名称:
STARLINK-36749
国际标识:
2026-026P
轨道中心:
EARTH
卫星名称:
星链-36749
卫星全名:
星链-36749(STARLINK-36749)
卫星状态:
在轨 (已飞行31 天)
发射日期:
2026-02-11 UTC
国别 :
美国 (US)
星等 :
--
轨道信息
数据来源 国际轨道数据
星历时间: 2026-03-14T06:00:02+0800
12小时前
查看轨道信息
半长轴: 6827.155km
偏心率: 0.0001985
轨道倾角: 97.286°
近地点辐角 92.176°
升交点赤经 127.451°
平近点角 233.792°
近地点: 447.662km
远地点: 450.374km
周期: 93.566分钟
每日圈数: 15.390161
详细信息
固有亮度:
5
最大亮度:
2.5
卫星平台:
Starlink V1.0
覆盖范围:
全球
运营商:
太空探索技术公司
运营商所在国:
美国
制造商(研发单位):
太空探索技术公司
制造商所在国:
美国
使用方式:
暂无
卫星简介
Starlink 计划是 SpaceX 推出的全球卫星互联网项目,通过发射低轨道卫星,为全球尤其是偏远地区提供高速、低延迟的互联网服务。自 2019 年起,Starlink 已部署数千颗卫星,旨在缩小全球数字鸿沟,推动互联网普及。该项目还为军事、航空等行业提供通信支持,带来广泛经济效益。
2D轨道图
3D轨道图
轨道高度分析图
轨道倾角分析图
轨道综合分析图
查看轨道综合分析图